Location: Diebersbach
(48.5163°N, 8.0558°E)
Time: 23:59:24
(UTC+00:00)

FENGYUN 1C DEB - Pass Details

Date: 04 February 2022
Orbit: 690 x 984 km, 98.6° (Epoch: 23 May)

Event Time Altitude Azimuth Distance (km) Brightness Sun altitude
Rises 06:01:42 0° 19° (NNE) 3,523 ? -8.8°
Reaches altitude 10° 06:04:20 10° 26° (NNE) 2,533 ? -8.4°
Maximum altitude 06:09:39 42° 97° (E) 1,160 ? -7.6°
Drops below altitude 10° 06:14:32 10° 168° (SSE) 2,331 ? -6.8°
Sets 06:16:52 0° 175° (S) 3,212 ? -6.4°
